| time (UTC) | temp C | wind direction | speed KPH | gust KPH | rain 1hr cm | rain 24hr cm | rain mn cm | humidity % | barometer mb |
| 20260505210035 | 20 | 270 | 9.7 | 29.0 | 0.00 | 0.00 | 0.00 | 63 | 1012.5 |
| 20260505205035 | 19 | 270 | 9.7 | 25.7 | 0.00 | 0.00 | 0.00 | 61 | 1012.6 |
| 20260505204016 | 19 | 270 | 11.3 | 29.0 | 0.00 | 0.00 | 0.00 | 62 | 1012.8 |
| 20260505203017 | 19 | 293 | 11.3 | 33.8 | 0.00 | 0.00 | 0.00 | 62 | 1012.9 |
| 20260505202017 | 19 | 293 | 8.0 | 22.5 | 0.00 | 0.00 | 0.00 | 63 | 1013.0 |
| 20260505201017 | 19 | 270 | 11.3 | 25.7 | 0.00 | 0.00 | 0.00 | 62 | 1012.9 |
| 20260505200017 | 18 | 270 | 11.3 | 24.1 | 0.00 | 0.00 | 0.00 | 62 | 1013.0 |
| 20260505195017 | 18 | 248 | 9.7 | 20.9 | 0.00 | 0.00 | 0.00 | 63 | 1013.1 |
| 20260505194016 | 18 | 270 | 9.7 | 30.6 | 0.00 | 0.00 | 0.00 | 65 | 1013.1 |
| 20260505193018 | 18 | 270 | 11.3 | 30.6 | 0.00 | 0.00 | 0.00 | 64 | 1013.2 |
| 20260505192017 | 18 | 270 | 12.9 | 32.2 | 0.00 | 0.00 | 0.00 | 64 | 1013.4 |
| 20260505191019 | 18 | 270 | 9.7 | 20.9 | 0.00 | 0.00 | 0.00 | 66 | 1013.2 |
| 20260505190017 | 18 | 270 | 9.7 | 22.5 | 0.00 | 0.00 | 0.00 | 64 | 1013.4 |
| 20260505185015 | 18 | 248 | 9.7 | 29.0 | 0.00 | 0.00 | 0.00 | 68 | 1013.4 |
| 20260505184017 | 18 | 293 | 9.7 | 37.0 | 0.00 | 0.00 | 0.00 | 65 | 1013.5 |
| 20260505183017 | 17 | 270 | 11.3 | 30.6 | 0.00 | 0.00 | 0.00 | 66 | 1013.6 |
| 20260505182017 | 17 | 270 | 8.0 | 20.9 | 0.00 | 0.00 | 0.00 | 67 | 1013.5 |
| 20260505181017 | 17 | 270 | 9.7 | 29.0 | 0.00 | 0.00 | 0.00 | 69 | 1013.6 |
| 20260505180017 | 17 | 270 | 12.9 | 27.4 | 0.00 | 0.00 | 0.00 | 68 | 1013.6 |
| 20260505175017 | 17 | 270 | 11.3 | 25.7 | 0.00 | 0.00 | 0.00 | 70 | 1013.5 |
| 20260505174016 | 17 | 248 | 9.7 | 24.1 | 0.00 | 0.00 | 0.00 | 68 | 1013.6 |
| 20260505173017 | 16 | 270 | 8.0 | 27.4 | 0.00 | 0.00 | 0.00 | 70 | 1013.6 |
| 20260505172017 | 16 | 270 | 12.9 | 27.4 | 0.00 | 0.00 | 0.00 | 72 | 1013.4 |
| 20260505171016 | 16 | 293 | 9.7 | 33.8 | 0.00 | 0.00 | 0.00 | 72 | 1013.5 |
| 20260505170017 | 16 | 270 | 9.7 | 20.9 | 0.00 | 0.00 | 0.00 | 72 | 1013.5 |
| 20260505165018 | 16 | 248 | 8.0 | 24.1 | 0.00 | 0.00 | 0.00 | 73 | 1013.5 |
| 20260505164017 | 16 | 248 | 6.4 | 19.3 | 0.00 | 0.00 | 0.00 | 73 | 1013.5 |
| 20260505163017 | 15 | 270 | 12.9 | 38.6 | 0.00 | 0.00 | 0.00 | 73 | 1013.3 |
| 20260505162037 | 15 | 270 | 8.0 | 22.5 | 0.00 | 0.00 | 0.00 | 74 | 1013.3 |
| 20260505161019 | 15 | 270 | 8.0 | 27.4 | 0.00 | 0.00 | 0.00 | 74 | 1013.3 |
| 20260505153017 | 15 | 270 | 6.4 | 22.5 | 0.00 | 0.00 | 0.00 | 77 | 1013.2 |
| 20260505152036 | 15 | 248 | 8.0 | 17.7 | 0.00 | 0.00 | 0.00 | 77 | 1013.1 |
| 20260505151016 | 14 | 293 | 6.4 | 27.4 | 0.00 | 0.00 | 0.00 | 78 | 1013.0 |
| 20260505125016 | 12 | 270 | 4.8 | 12.9 | 0.00 | 0.00 | 0.00 | 83 | 1012.2 |
| 20260505124016 | 12 | 180 | 6.4 | 20.9 | 0.00 | 0.00 | 0.00 | 83 | 1012.2 |
| 20260505123016 | 13 | 180 | 6.4 | 17.7 | 0.00 | 0.00 | 0.00 | 83 | 1012.3 |
| 20260505122016 | 13 | 248 | 6.4 | 20.9 | 0.00 | 0.00 | 0.00 | 83 | 1012.4 |
| 20260505121016 | 13 | 203 | 4.8 | 14.5 | 0.00 | 0.00 | 0.00 | 82 | 1012.2 |
| 20260505120017 | 13 | 225 | 6.4 | 27.4 | 0.00 | 0.00 | 0.00 | 82 | 1012.3 |
| 20260505115016 | 13 | 180 | 3.2 | 19.3 | 0.00 | 0.00 | 0.00 | 82 | 1012.3 |
| 20260505114016 | 13 | 315 | 4.8 | 25.7 | 0.00 | 0.00 | 0.00 | 82 | 1012.2 |
| 20260505113016 | 13 | 293 | 4.8 | 20.9 | 0.00 | 0.00 | 0.00 | 81 | 1012.1 |
| 20260505112056 | 13 | 248 | 3.2 | 11.3 | 0.00 | 0.00 | 0.00 | 81 | 1012.0 |
| 20260505111022 | 13 | 293 | 4.8 | 14.5 | 0.00 | 0.00 | 0.00 | 81 | 1012.0 |
| 20260505102017 | 13 | 180 | 3.2 | 9.7 | 0.00 | 0.00 | 0.00 | 80 | 1011.7 |
| 20260505101015 | 13 | 270 | 4.8 | 17.7 | 0.00 | 0.00 | 0.00 | 80 | 1011.4 |
| 20260505100016 | 14 | 270 | 9.7 | 33.8 | 0.00 | 0.00 | 0.00 | 79 | 1011.4 |
| 20260505095015 | 14 | 180 | 9.7 | 20.9 | 0.00 | 0.00 | 0.00 | 79 | 1011.3 |
| 20260505094015 | 14 | 203 | 4.8 | 19.3 | 0.00 | 0.00 | 0.00 | 78 | 1011.3 |
| 20260505093016 | 15 | 293 | 6.4 | 19.3 | 0.00 | 0.00 | 0.00 | 78 | 1011.3 |
| 20260505092015 | 15 | 203 | 6.4 | 20.9 | 0.00 | 0.00 | 0.00 | 78 | 1011.2 |
| 20260505091016 | 15 | 158 | 4.8 | 17.7 | 0.00 | 0.00 | 0.00 | 77 | 1011.2 |
| 20260505090138 | 15 | 158 | 8.0 | 24.1 | 0.00 | 0.00 | 0.00 | 76 | 1010.8 |
| 20260505085038 | 16 | 270 | 8.0 | 24.1 | 0.00 | 0.00 | 0.00 | 75 | 1010.7 |
| 20260505084017 | 16 | 293 | 6.4 | 25.7 | 0.00 | 0.00 | 0.00 | 75 | 1010.5 |
| 20260505083037 | 16 | 270 | 8.0 | 20.9 | 0.00 | 0.00 | 0.00 | 74 | 1010.8 |
| 20260505082016 | 16 | 293 | 4.8 | 17.7 | 0.00 | 0.00 | 0.00 | 74 | 1010.8 |
| 20260505081018 | 16 | 270 | 4.8 | 14.5 | 0.00 | 0.00 | 0.00 | 74 | 1010.5 |
| 20260505080057 | 16 | 248 | 6.4 | 14.5 | 0.00 | 0.00 | 0.00 | 74 | 1010.6 |
| 20260505075017 | 17 | 203 | 6.4 | 29.0 | 0.00 | 0.00 | 0.00 | 75 | 1010.5 |
| 20260505074038 | 17 | 338 | 3.2 | 16.1 | 0.00 | 0.00 | 0.00 | 75 | 1010.5 |
| 20260505073016 | 17 | 270 | 4.8 | 19.3 | 0.00 | 0.00 | 0.00 | 75 | 1010.5 |
| 20260505072017 | 17 | 270 | 6.4 | 19.3 | 0.00 | 0.00 | 0.00 | 75 | 1010.3 |
| 20260505071018 | 17 | 0 | 4.8 | 17.7 | 0.00 | 0.00 | 0.00 | 75 | 1010.3 |
| 20260505070017 | 17 | 270 | 4.8 | 11.3 | 0.00 | 0.00 | 0.00 | 75 | 1010.3 |
| 20260505065018 | 17 | 0 | 3.2 | 9.7 | 0.00 | 0.00 | 0.00 | 75 | 1010.1 |
| 20260505064017 | 17 | 180 | 4.8 | 11.3 | 0.00 | 0.00 | 0.00 | 74 | 1010.1 |
| 20260505063018 | 18 | 293 | 4.8 | 11.3 | 0.00 | 0.00 | 0.00 | 73 | 1010.0 |
| 20260505062017 | 18 | 180 | 3.2 | 8.0 | 0.00 | 0.00 | 0.00 | 73 | 1010.1 |
| 20260505061017 | 18 | 270 | 3.2 | 11.3 | 0.00 | 0.00 | 0.00 | 72 | 1009.7 |
| 20260505060019 | 18 | 293 | 4.8 | 9.7 | 0.00 | 0.00 | 0.00 | 71 | 1009.9 |
| 20260505055017 | 18 | 270 | 3.2 | 11.3 | 0.00 | 0.00 | 0.00 | 70 | 1009.9 |
| 20260505054017 | 18 | 270 | 4.8 | 20.9 | 0.00 | 0.00 | 0.00 | 70 | 1009.7 |
| 20260505053018 | 18 | 270 | 6.4 | 22.5 | 0.00 | 0.00 | 0.00 | 70 | 1009.6 |
| 20260505052017 | 18 | 225 | 3.2 | 11.3 | 0.00 | 0.00 | 0.00 | 69 | 1009.8 |
| 20260505051017 | 19 | 248 | 4.8 | 16.1 | 0.00 | 0.00 | 0.00 | 68 | 1009.7 |
| 20260505041016 | 20 | 270 | 6.4 | 11.3 | 0.00 | 0.00 | 0.00 | 63 | 1008.9 |
| 20260505040038 | 20 | 135 | 3.2 | 9.7 | 0.00 | 0.00 | 0.00 | 62 | 1008.8 |
| 20260505035017 | 20 | 270 | 4.8 | 9.7 | 0.00 | 0.00 | 0.00 | 62 | 1008.6 |
| 20260505034017 | 20 | 293 | 4.8 | 16.1 | 0.00 | 0.00 | 0.00 | 61 | 1008.5 |
| 20260505033036 | 20 | 293 | 3.2 | 8.0 | 0.00 | 0.00 | 0.00 | 61 | 1008.4 |
| 20260505032016 | 20 | 270 | 3.2 | 9.7 | 0.00 | 0.00 | 0.00 | 60 | 1008.1 |
| 20260505031017 | 20 | 270 | 3.2 | 22.5 | 0.00 | 0.00 | 0.00 | 59 | 1008.1 |
| 20260505030036 | 20 | 315 | 3.2 | 6.4 | 0.00 | 0.00 | 0.00 | 59 | 1007.8 |
| 20260505025016 | 21 | 180 | 1.6 | 4.8 | 0.00 | 0.00 | 0.00 | 58 | 1007.7 |
| 20260505024016 | 21 | 203 | 3.2 | 8.0 | 0.00 | 0.00 | 0.00 | 58 | 1007.6 |
| 20260505023036 | 21 | 270 | 6.4 | 20.9 | 0.00 | 0.00 | 0.00 | 57 | 1007.5 |
| 20260505022056 | 21 | 248 | 6.4 | 29.0 | 0.00 | 0.00 | 0.00 | 57 | 1007.4 |
| 20260505021016 | 21 | 248 | 6.4 | 17.7 | 0.00 | 0.00 | 0.00 | 57 | 1007.4 |
| 20260505020016 | 22 | 270 | 8.0 | 24.1 | 0.00 | 0.00 | 0.00 | 56 | 1007.2 |
| 20260505015038 | 22 | 248 | 11.3 | 27.4 | 0.00 | 0.00 | 0.00 | 56 | 1007.1 |
| 20260505014017 | 22 | 270 | 8.0 | 25.7 | 0.00 | 0.00 | 0.00 | 56 | 1007.2 |
| 20260505013036 | 22 | 270 | 6.4 | 24.1 | 0.00 | 0.00 | 0.00 | 55 | 1007.1 |
| 20260505012018 | 22 | 270 | 9.7 | 30.6 | 0.00 | 0.00 | 0.00 | 56 | 1007.2 |
| 20260505011016 | 22 | 270 | 9.7 | 27.4 | 0.00 | 0.00 | 0.00 | 55 | 1007.2 |
| 20260505010016 | 22 | 248 | 8.0 | 27.4 | 0.00 | 0.00 | 0.00 | 56 | 1007.2 |
| 20260505005016 | 22 | 270 | 9.7 | 25.7 | 0.00 | 0.00 | 0.00 | 55 | 1007.2 |
| 20260505004018 | 22 | 225 | 11.3 | 33.8 | 0.00 | 0.00 | 0.00 | 53 | 1007.2 |
| 20260505003016 | 23 | 270 | 8.0 | 19.3 | 0.00 | 0.00 | 0.00 | 53 | 1007.3 |
| 20260505002016 | 23 | 270 | 12.9 | 25.7 | 0.00 | 0.00 | 0.00 | 52 | 1007.3 |
| 20260505001017 | 23 | 270 | 8.0 | 19.3 | 0.00 | 0.00 | 0.00 | 52 | 1007.1 |
| 20260505000016 | 23 | 270 | 8.0 | 29.0 | 0.00 | 0.00 | 0.00 | 53 | 1007.3 |
| 20260504235016 | 23 | 270 | 8.0 | 27.4 | 0.00 | 0.00 | 0.00 | 50 | 1007.3 |
| 20260504234015 | 23 | 270 | 9.7 | 25.7 | 0.00 | 0.00 | 0.00 | 50 | 1007.1 |
| 20260504233016 | 23 | 293 | 8.0 | 20.9 | 0.00 | 0.00 | 0.00 | 52 | 1007.0 |
| 20260504232016 | 23 | 293 | 9.7 | 32.2 | 0.00 | 0.00 | 0.00 | 50 | 1007.0 |
| 20260504231016 | 23 | 270 | 9.7 | 29.0 | 0.00 | 0.00 | 0.00 | 51 | 1007.0 |
| 20260504230016 | 23 | 270 | 11.3 | 27.4 | 0.00 | 0.00 | 0.00 | 51 | 1007.2 |
| 20260504225015 | 23 | 270 | 8.0 | 17.7 | 0.00 | 0.00 | 0.00 | 51 | 1007.3 |
| 20260504224015 | 23 | 270 | 8.0 | 19.3 | 0.00 | 0.00 | 0.00 | 50 | 1007.3 |
| 20260504223056 | 23 | 270 | 11.3 | 29.0 | 0.00 | 0.00 | 0.00 | 52 | 1007.4 |
| 20260504222016 | 23 | 270 | 12.9 | 27.4 | 0.00 | 0.00 | 0.00 | 51 | 1007.5 |
| 20260504221016 | 23 | 270 | 9.7 | 22.5 | 0.00 | 0.00 | 0.00 | 52 | 1007.6 |
| 20260504220016 | 23 | 270 | 11.3 | 20.9 | 0.00 | 0.00 | 0.00 | 52 | 1007.6 |
| 20260504215016 | 23 | 270 | 9.7 | 22.5 | 0.00 | 0.00 | 0.00 | 51 | 1007.6 |
| 20260504214015 | 23 | 248 | 6.4 | 17.7 | 0.00 | 0.00 | 0.00 | 53 | 1007.8 |
| 20260504213015 | 23 | 270 | 11.3 | 30.6 | 0.00 | 0.00 | 0.00 | 51 | 1008.0 |
| 20260504212016 | 23 | 293 | 11.3 | 25.7 | 0.00 | 0.00 | 0.00 | 49 | 1008.0 |
| 20260504211035 | 23 | 270 | 9.7 | 22.5 | 0.00 | 0.00 | 0.00 | 51 | 1008.0 |